Location: Newark
(45.5167°N, 11.1667°E)
Time: 14:16:27
(UTC+00:00)

Vanguard 2 - Visible Passes

Search period start: 11 December 2019 00:00
Search period end: 21 December 2019 00:00
Orbit: 553 x 2938 km, 32.9° (Epoch: 10 December)

Date Brightness Start Highest point End Pass type
(mag) Time Alt. Az. Time Alt. Az. Time Alt. Az.
11 Dec 10.5 02:08:26 52° SSE 02:08:26 52° SSE 02:24:15 10° ESE visible
11 Dec 10.6 04:09:50 28° WSW 04:19:35 49° SSW 04:33:47 10° SE visible
12 Dec 11.3 00:23:48 26° ESE 00:23:48 26° ESE 00:30:39 10° E visible
12 Dec 10.4 02:25:12 53° S 02:25:55 53° S 02:42:04 10° ESE visible
12 Dec 10.7 04:26:36 24° WSW 04:37:16 46° SSW 04:51:12 10° SE visible
13 Dec 11.2 00:40:33 31° ESE 00:40:33 31° ESE 00:48:45 10° E visible
13 Dec 10.4 02:41:58 52° SSW 02:43:44 53° S 02:59:50 10° ESE visible
13 Dec 10.8 04:43:21 20° WSW 04:54:52 41° SSW 05:08:26 10° SE visible
14 Dec 11.0 00:57:19 35° ESE 00:57:19 35° ESE 01:06:45 10° E visible
14 Dec 10.4 02:58:42 49° SSW 03:01:32 52° S 03:17:29 10° ESE visible
14 Dec 10.9 05:00:07 16° W 05:12:21 36° SSW 05:25:27 10° SSE visible
15 Dec 10.9 01:14:05 40° SE 01:14:05 40° SE 01:24:41 10° ESE visible
15 Dec 10.5 03:15:28 44° SW 03:19:17 49° SSW 03:35:01 10° SE visible
15 Dec 11.1 05:16:53 12° W 05:29:45 31° SW 05:42:07 10° SSE visible
15 Dec 11.8 23:29:27 12° E 23:29:27 12° E 23:30:21 10° E visible
16 Dec 10.8 01:30:51 43° SE 01:30:51 43° SE 01:42:31 10° ESE visible
16 Dec 10.6 03:32:15 39° SW 03:36:59 45° SSW 03:52:24 10° SE visible
16 Dec 11.2 05:34:25 10° W 05:47:04 25° SW 05:58:23 10° S visible
16 Dec 11.7 23:46:15 15° E 23:46:15 15° E 23:48:26 10° E visible
17 Dec 10.7 01:47:39 46° SSE 01:47:39 46° SSE 02:00:16 10° ESE visible
17 Dec 10.7 03:49:03 34° WSW 03:54:38 40° SSW 04:09:32 10° SE visible
17 Dec 11.4 05:53:43 10° W 06:04:17 19° SW 06:13:58 10° S visible
18 Dec 11.6 00:03:04 18° ESE 00:03:04 18° ESE 00:06:27 10° E visible
18 Dec 10.6 02:04:29 46° SSE 02:04:29 46° SSE 02:17:55 10° ESE visible
18 Dec 10.9 04:05:53 28° WSW 04:12:10 35° SSW 04:26:25 10° SSE visible
18 Dec 11.6 06:14:15 10° WSW 06:21:26 14° SW 06:28:14 10° SSW visible
19 Dec 11.5 00:19:55 21° ESE 00:19:55 21° ESE 00:24:22 10° ESE visible
19 Dec 10.6 02:21:19 45° S 02:21:19 45° S 02:35:23 10° SE visible
19 Dec 11.0 04:22:44 23° WSW 04:29:38 29° SW 04:42:55 10° SSE visible
20 Dec 11.4 00:36:47 23° ESE 00:36:47 23° ESE 00:42:13 10° ESE visible
20 Dec 10.6 02:38:11 42° S 02:38:11 42° S 02:52:41 10° SE visible
20 Dec 11.2 04:39:37 18° WSW 04:47:01 24° SW 04:58:55 10° S visible
